Location: Unspecified
(0.0000°N, 0.0000°E)
Time: 16:53:06
(UTC+00:00)

SCD-1 - Visible Passes

Search period start: 28 May 2023 00:00
Search period end: 07 June 2023 00:00
Orbit: 712 x 772 km, 25.0° (Epoch: 27 May)

Date Brightness Start Highest point End Pass type
(mag) Time Alt. Az. Time Alt. Az. Time Alt. Az.
02 Jun 10.5 19:45:03 10° SSW 19:46:06 14° SSW 19:46:06 14° SSW visible
03 Jun 9.9 18:56:42 10° SSW 19:00:02 17° SSE 19:00:49 16° SE visible
04 Jun 9.6 19:52:27 10° SW 19:55:16 30° SSW 19:55:16 30° SSW visible
05 Jun 9.0 19:03:48 10° SW 19:08:30 36° SSE 19:10:14 28° ESE visible
05 Jun 11.1 20:49:33 10° WSW 20:49:53 12° WSW 20:49:53 12° WSW visible
06 Jun 9.4 18:15:13 10° SSW 18:19:35 28° SSE 18:23:58 10° E visible
06 Jun 8.7 20:00:35 10° WSW 20:04:58 62° W 20:04:58 62° W visible
